TimeCDT,TemperatureF,Dew PointF,Humidity,Sea Level PressureIn,VisibilityMPH,Wind Direction,Wind SpeedMPH,Gust SpeedMPH,PrecipitationIn,Events,Conditions,WindDirDegrees,DateUTC
12:15 AM,53.6,44.6,72,30.16,10.0,WSW,3.5,-,N/A,,Clear,240,2012-09-16 05:15:00
12:35 AM,53.6,44.6,72,30.16,10.0,SW,3.5,-,N/A,,Clear,230,2012-09-16 05:35:00
12:55 AM,53.6,44.6,72,30.16,10.0,WSW,3.5,-,N/A,,Clear,250,2012-09-16 05:55:00
1:15 AM,55.4,44.6,67,30.15,10.0,WSW,3.5,-,N/A,,Clear,250,2012-09-16 06:15:00
1:35 AM,55.4,44.6,67,30.15,10.0,West,4.6,-,N/A,,Clear,270,2012-09-16 06:35:00
1:55 AM,53.6,42.8,67,30.15,10.0,Calm,Calm,-,N/A,,Clear,0,2012-09-16 06:55:00
2:15 AM,48.2,42.8,82,30.15,10.0,Calm,Calm,-,N/A,,Clear,0,2012-09-16 07:15:00
2:35 AM,48.2,42.8,82,30.15,10.0,Calm,Calm,-,N/A,,Clear,0,2012-09-16 07:35:00
2:55 AM,48.2,42.8,82,30.14,10.0,Calm,Calm,-,N/A,,Clear,0,2012-09-16 07:55:00
3:15 AM,48.2,42.8,82,30.14,10.0,Calm,Calm,-,N/A,,Clear,0,2012-09-16 08:15:00
3:35 AM,48.2,42.8,82,30.14,10.0,Calm,Calm,-,N/A,,Clear,0,2012-09-16 08:35:00
3:55 AM,48.2,41.0,76,30.13,10.0,Calm,Calm,-,N/A,,Clear,0,2012-09-16 08:55:00
4:15 AM,48.2,42.8,82,30.13,10.0,Calm,Calm,-,N/A,,Clear,0,2012-09-16 09:15:00
4:35 AM,46.4,41.0,81,30.13,10.0,Calm,Calm,-,N/A,,Clear,0,2012-09-16 09:35:00
4:55 AM,46.4,42.8,87,30.14,10.0,Calm,Calm,-,N/A,,Clear,0,2012-09-16 09:55:00
5:15 AM,46.4,42.8,87,30.13,10.0,Calm,Calm,-,N/A,,Clear,0,2012-09-16 10:15:00
5:35 AM,46.4,42.8,87,30.13,10.0,South,3.5,-,N/A,,Clear,180,2012-09-16 10:35:00
5:55 AM,44.6,39.2,81,30.13,10.0,Calm,Calm,-,N/A,,Clear,0,2012-09-16 10:55:00
6:15 AM,44.6,39.2,81,30.14,10.0,Calm,Calm,-,N/A,,Clear,0,2012-09-16 11:15:00
6:35 AM,44.6,39.2,81,30.14,10.0,South,3.5,-,N/A,,Clear,170,2012-09-16 11:35:00
7:15 AM,48.2,44.6,87,30.14,10.0,SSE,3.5,-,N/A,,Clear,160,2012-09-16 12:15:00
7:35 AM,46.4,42.8,87,30.14,10.0,SE,3.5,-,N/A,,Clear,140,2012-09-16 12:35:00
7:55 AM,48.2,44.6,87,30.14,10.0,SE,3.5,-,N/A,,Clear,140,2012-09-16 12:55:00
8:15 AM,51.8,48.2,88,30.14,5.0,Calm,Calm,-,N/A,,Clear,0,2012-09-16 13:15:00
8:35 AM,55.4,50.0,82,30.14,10.0,SSE,3.5,-,N/A,,Clear,160,2012-09-16 13:35:00
8:55 AM,57.2,50.0,77,30.14,10.0,South,3.5,-,N/A,,Clear,190,2012-09-16 13:55:00
9:15 AM,60.8,51.8,72,30.14,10.0,SSW,5.8,-,N/A,,Clear,200,2012-09-16 14:15:00
9:35 AM,62.6,50.0,63,30.14,10.0,SSW,5.8,-,N/A,,Clear,210,2012-09-16 14:35:00
9:55 AM,62.6,48.2,59,30.14,10.0,SSW,6.9,-,N/A,,Clear,210,2012-09-16 14:55:00
10:15 AM,64.4,48.2,56,30.14,10.0,SSW,6.9,-,N/A,,Clear,200,2012-09-16 15:15:00
10:35 AM,66.2,48.2,52,30.14,10.0,SW,8.1,-,N/A,,Clear,220,2012-09-16 15:35:00
10:55 AM,66.2,48.2,52,30.13,10.0,SSW,6.9,-,N/A,,Clear,210,2012-09-16 15:55:00
11:15 AM,68.0,46.4,46,30.13,10.0,SW,9.2,-,N/A,,Clear,230,2012-09-16 16:15:00
11:35 AM,69.8,46.4,43,30.12,10.0,SW,10.4,-,N/A,,Clear,220,2012-09-16 16:35:00
11:55 AM,69.8,44.6,40,30.12,10.0,SW,8.1,-,N/A,,Clear,220,2012-09-16 16:55:00
12:15 PM,71.6,44.6,38,30.11,10.0,SW,5.8,-,N/A,,Clear,230,2012-09-16 17:15:00
12:35 PM,71.6,44.6,38,30.10,10.0,SSW,11.5,17.3,N/A,,Clear,210,2012-09-16 17:35:00
12:55 PM,71.6,46.4,41,30.09,10.0,SSW,10.4,-,N/A,,Clear,210,2012-09-16 17:55:00
1:15 PM,71.6,46.4,41,30.08,10.0,SW,12.7,16.1,N/A,,Clear,220,2012-09-16 18:15:00
1:35 PM,71.6,46.4,41,30.08,10.0,WSW,10.4,-,N/A,,Clear,240,2012-09-16 18:35:00
1:55 PM,73.4,46.4,38,30.06,10.0,SSW,10.4,-,N/A,,Clear,200,2012-09-16 18:55:00
2:15 PM,73.4,46.4,38,30.06,10.0,SSW,8.1,-,N/A,,Clear,210,2012-09-16 19:15:00
2:35 PM,73.4,48.2,41,30.05,10.0,SSW,10.4,17.3,N/A,,Clear,210,2012-09-16 19:35:00
2:55 PM,75.2,46.4,36,30.04,10.0,South,12.7,18.4,N/A,,Clear,190,2012-09-16 19:55:00
3:15 PM,75.2,46.4,36,30.03,10.0,SSW,11.5,-,N/A,,Clear,200,2012-09-16 20:15:00
3:35 PM,75.2,46.4,36,30.03,10.0,SSW,13.8,-,N/A,,Clear,210,2012-09-16 20:35:00
3:55 PM,75.2,46.4,36,30.02,10.0,SSW,6.9,-,N/A,,Clear,210,2012-09-16 20:55:00
4:15 PM,75.2,46.4,36,30.01,10.0,SSW,8.1,17.3,N/A,,Clear,200,2012-09-16 21:15:00
4:35 PM,75.2,46.4,36,30.01,10.0,SSW,11.5,-,N/A,,Clear,210,2012-09-16 21:35:00
4:55 PM,75.2,46.4,36,30.00,10.0,SSW,9.2,19.6,N/A,,Clear,210,2012-09-16 21:55:00
5:15 PM,75.2,46.4,36,30.00,10.0,SSW,8.1,-,N/A,,Clear,210,2012-09-16 22:15:00
5:35 PM,73.4,46.4,38,29.99,10.0,SW,9.2,-,N/A,,Clear,230,2012-09-16 22:35:00
5:55 PM,73.4,46.4,38,29.99,10.0,SW,6.9,-,N/A,,Clear,220,2012-09-16 22:55:00
6:15 PM,71.6,48.2,43,29.99,10.0,SW,6.9,-,N/A,,Clear,220,2012-09-16 23:15:00
6:35 PM,68.0,48.2,49,29.99,10.0,SW,4.6,-,N/A,,Clear,220,2012-09-16 23:35:00
6:55 PM,66.2,48.2,52,29.99,10.0,South,4.6,-,N/A,,Clear,190,2012-09-16 23:55:00
7:15 PM,64.4,48.2,56,29.99,10.0,South,4.6,-,N/A,,Clear,190,2012-09-17 00:15:00
7:35 PM,62.6,48.2,59,29.99,10.0,SSW,6.9,-,N/A,,Clear,200,2012-09-17 00:35:00
7:55 PM,60.8,48.2,63,29.99,10.0,SSW,4.6,-,N/A,,Clear,210,2012-09-17 00:55:00
8:15 PM,60.8,46.4,59,30.00,10.0,SSW,3.5,-,N/A,,Clear,210,2012-09-17 01:15:00
8:35 PM,59.0,48.2,67,29.99,10.0,SSW,3.5,-,N/A,,Clear,200,2012-09-17 01:35:00
8:55 PM,59.0,48.2,67,29.99,10.0,SSE,4.6,-,N/A,,Clear,160,2012-09-17 01:55:00
9:15 PM,57.2,48.2,72,29.99,10.0,SSE,3.5,-,N/A,,Clear,150,2012-09-17 02:15:00
9:35 PM,55.4,48.2,77,29.99,10.0,SE,3.5,-,N/A,,Clear,130,2012-09-17 02:35:00
9:55 PM,55.4,48.2,77,30.00,10.0,SE,3.5,-,N/A,,Clear,140,2012-09-17 02:55:00
10:15 PM,55.4,48.2,77,30.00,10.0,SE,3.5,-,N/A,,Clear,130,2012-09-17 03:15:00
10:35 PM,55.4,48.2,77,30.00,10.0,SE,3.5,-,N/A,,Clear,140,2012-09-17 03:35:00
10:55 PM,55.4,48.2,77,30.00,10.0,SE,4.6,-,N/A,,Clear,140,2012-09-17 03:55:00
11:15 PM,55.4,48.2,77,30.00,10.0,SSE,3.5,-,N/A,,Clear,150,2012-09-17 04:15:00
11:35 PM,55.4,48.2,77,30.00,10.0,SSE,3.5,-,N/A,,Clear,160,2012-09-17 04:35:00
11:55 PM,55.4,50.0,82,30.00,10.0,Calm,Calm,-,N/A,,Clear,0,2012-09-17 04:55:00